This is the latest recevied weather packets stored in our database for station/object EA1FWM-12. If no packets are shown the sender has not sent any weather packets the latest 10 day(s).
| Time | Temp. | Humidity | Pressure | Rain* | Wind** | Luminosity | Snow |
|---|---|---|---|---|---|---|---|
| 1777589058 | 11.67° C | 80% | 1022.8 hPa | - | - | - | - |
| 1777588158 | 11.67° C | 80% | 1022.9 hPa | - | - | - | - |
| 1777587258 | 11.67° C | 80% | 1022.8 hPa | - | - | - | - |
| 1777586358 | 11.67° C | 80% | 1022.9 hPa | - | - | - | - |
| 1777585458 | 11.67° C | 80% | 1022.9 hPa | - | - | - | - |
| 1777584559 | 11.67° C | 80% | 1022.7 hPa | - | - | - | - |
| 1777583659 | 11.67° C | 80% | 1022.7 hPa | - | - | - | - |
| 1777582759 | 11.11° C | 80% | 1022.6 hPa | - | - | - | - |
| 1777581860 | 11.11° C | 80% | 1022.5 hPa | - | - | - | - |
| 1777580959 | 11.11° C | 79% | 1022.4 hPa | - | - | - | - |
| 1777580059 | 11.11° C | 79% | 1022.2 hPa | - | - | - | - |
| 1777579159 | 11.11° C | 78% | 1021.9 hPa | - | - | - | - |
| 1777578260 | 11.11° C | 77% | 1021.7 hPa | - | - | - | - |
| 1777577360 | 11.67° C | 76% | 1021.6 hPa | - | - | - | - |
| 1777576468 | 12.22° C | 75% | 1021.5 hPa | - | - | - | - |
| 1777575560 | 12.78° C | 74% | 1021.5 hPa | - | - | - | - |
| 1777574662 | 13.33° C | 73% | 1021.4 hPa | - | - | - | - |
| 1777573762 | 13.89° C | 73% | 1021.2 hPa | - | - | - | - |
| 1777572869 | 14.44° C | 72% | 1021.1 hPa | - | - | - | - |
| 1777571962 | 14.44° C | 72% | 1021 hPa | - | - | - | - |
| 1777571062 | 14.44° C | 72% | 1021 hPa | - | - | - | - |
| 1777570162 | 14.44° C | 72% | 1020.8 hPa | - | - | - | - |
| 1777569269 | 15° C | 70% | 1020.9 hPa | - | - | - | - |
| 1777568362 | 15.56° C | 70% | 1020.8 hPa | - | - | - | - |
| 1777567462 | 16.11° C | 69% | 1020.7 hPa | - | - | - | - |
* Rain since midnight (hover to see other rain measurements)
** Current wind speed in m/s (hover to see current wind gust speed)